Regional Weather Roundup
Issued by NWS

Home | Current Version | Previous Version | Text Only | Print | Product List | Glossary On
Versions: 1 2 3 4 5 6 7 8 9 10 11 12 13 14 15 16 17 18 19 20 21 22 23 24 25 26 27
000
ASUS45 KSLC 191310
RWRUT

UTAH REGIONAL WEATHER ROUNDUP
NATIONAL WEATHER SERVICE SALT LAKE CITY UT
600 AM MST SUN NOV 19 2017

UTZ001>011-023>025-191400-

NORTHERN UTAH

CITY           SKY/WX    TMP DP  RH WIND       PRES   REMARKS
BRIGHAM CITY   MOCLDY    26  23  87 CALM      30.29F
HILL AFB       MOCLDY    26  17  69 E17       30.26F WCI  12
LOGAN          PTCLDY    24  20  84 CALM      30.28F
OGDEN          MOCLDY    27  19  72 S7        30.27F WCI  19
SALT LAKE CITY CLOUDY    31  24  75 CALM      30.28F
TOOELE VALLEY  CLOUDY    28  23  80 S8        30.28S WCI  20
WENDOVER       MOCLDY    26  21  81 CALM      30.28F
HEBER CITY       N/A     19  16  86 CALM      30.27S
WEST JORDAN    MOCLDY    28  24  83 S3        30.28S

$$

UTZ011>015-024>027-191400-

CENTRAL/NORTHEAST UTAH

CITY           SKY/WX    TMP DP  RH WIND       PRES   REMARKS
PROVO AIRPORT  MOCLDY    25  19  78 SE5       30.29F WCI  19
MOAB/CANYONLAN MOCLDY    19   1  45 CALM      30.35S
DELTA          CLOUDY    19  16  86 CALM      30.28S
PRICE          MOCLDY    19   6  57 NE6       30.31F WCI  11
ROOSEVELT      CLOUDY    18  12  79 CALM      30.36S
VERNAL         CLOUDY    18  10  71 W3        30.34S

$$

UTZ013>016-019>022-027-191400-

SOUTHERN UTAH

CITY           SKY/WX    TMP DP  RH WIND       PRES   REMARKS
BRYCE CANYON   MOCLDY    11   4  73 W6        30.31F WCI   1
CEDAR CITY     MOCLDY    14  12  92 CALM      30.24F
MILFORD        CLOUDY    14  11  87 SW8       30.27S WCI   3
ST GEORGE      PTSUNNY   33  13  43 CALM      30.27F
HANKSVILLE     MOCLDY    14  -2  48 CALM      30.39S
BLANDING         N/A     18   6  58 N3        30.39F

$$

REGIONAL REPORTS     COLORADO/ARIZONA

CITY           SKY/WX    TMP DP  RH WIND       PRES   REMARKS
CRAIG, CO      CLOUDY     9   4  80 SW5       30.33S WCI   1
GRAND JUNCTION CLOUDY    15  13  91 E6        30.36F WCI   6
RIFLE, CO      CLOUDY    17  13  84 CALM      30.39S
MONTROSE, CO   CLOUDY    17  13  84 S7        30.39S WCI   8
CORTEZ, CO     CLOUDY     8   5  87 CALM      30.34S
COLORADO CITY    N/A     30   5  34 SE6       30.28S WCI  24
PAGE, AZ       MOCLDY    30   8  39 CALM      30.33S
GRAND CANYON   MOCLDY    25  -1  32 E7        30.27S WCI  17
KINGMAN, AZ    PTCLDY    29   6  38 NE5       30.18S WCI  24
FLAGSTAFF, AZ  MOCLDY    11   0  61 CALM      30.29R

$$

REGIONAL REPORTS    NEVADA/IDAHO/WYOMING

CITY           SKY/WX    TMP DP  RH WIND       PRES   REMARKS
LAS VEGAS, NV  PTCLDY    42  10  27 SW5       30.18F
ELY, NY        PTCLDY    11   2  67 S14       30.23F WCI  -5
ELKO, NV       MOCLDY    20  15  81 NE3       30.24S
POCATELLO, ID  CLOUDY    22  20  92 CALM      30.26S
BURLEY, ID     PTCLDY    24  19  81 NE7       30.21S WCI  16
FORT BRIDGER,    N/A     12   7  81 CALM      30.27S
EVANSTON, WY   CLOUDY    19  13  77 SE3       30.23F
ROCK SPRINGS,  CLOUDY    15   8  73 CALM      30.24F

$$




USA.gov is the U.S. government's official web portal to all federal, state and local government web resources and services.